[[{"header":{"parameterUnit":"m.s-1","parameterCategory":1,"la1":30.2991,"la2":30.254,"lo1":-89.0895,"lo2":-89.0444,"dy":0.0017,"dx":0.0017,"nx":28,"ny":28,"refTime":"2026-01-01T09:00:00:Z","depth":0,"parameterNumber":2,"parameterNumberName":"U-component_of_WINDS"},"data":[0,0,0,0,0,0,0,0,0,0,0,0,0,0,0,0,0,0,0,0,0,0,0,0,0,0,0,0,0,0,0,0,0,0,0,0,0,0,0,0,0,0,0,0,0,0,0,0,0,0,0,0,0,0,0,0,0,0,3.0206,3.0206,0,3.0213,3.0213,3.0213,3.0151,3.015,3.0148,3.0146,3.0154,3.0156,3.0158,0,0,0,0,0,0,0,0,0,0,0,0,0,3.0141,3.0143,3.0206,3.0206,3.0206,3.0213,3.0213,3.0213,3.0152,3.015,3.0148,3.0146,3.0154,3.0156,3.0158,0,0,0,0,0,0,0,0,0,0,0,0,0,3.0161,3.0143,3.0206,3.0176,3.0174,3.0213,3.0213,3.0213,3.0152,3.015,3.0147,3.0145,3.0153,3.0155,3.0158,3.0226,0,0,3.0166,3.0167,0,0,0,0,0,0,0,0,3.016,3.0163,3.0181,3.0179,3.0176,3.0179,3.0193,3.0217,3.0153,3.0161,3.0146,3.0143,3.0164,3.0166,3.0173,3.0226,3.0226,3.0167,3.0168,3.0169,3.017,0,0,0,0,0,0,0,3.0159,3.0163,3.0209,3.0181,3.0178,3.0163,3.0163,3.0197,3.0177,3.016,3.0155,3.0157,3.0163,3.017,3.0173,3.0226,3.0166,3.0169,3.017,3.0172,3.0336,3.0339,0,0,0,0,0,0,3.0161,3.0162,3.0208,3.0209,3.0161,3.0166,3.0166,3.018,3.0176,3.0173,3.0159,3.0154,3.0167,3.017,3.0173,3.0252,3.0169,3.0172,3.0173,3.0334,3.0337,3.034,0,0,0,0,0,0,3.016,3.0166,3.0208,3.0184,3.0188,3.017,3.0186,3.0182,3.0189,3.0176,3.0172,3.0171,3.0165,3.0169,3.0213,3.0251,3.0173,3.0175,3.033,3.0335,3.0338,3.041,0,0,0,0,0,0,3.0158,3.0166,3.0191,3.0185,3.019,3.0248,3.0189,3.0184,3.0194,3.0188,3.0186,3.0183,3.0163,3.0209,3.0216,3.0253,3.0178,3.0327,3.0332,3.0337,3.0404,3.0416,3.0427,0,0,0,0,0,3.0156,3.0211,3.0192,3.0198,3.0221,3.025,3.0253,3.023,3.0198,3.0223,3.0214,3.0183,3.0246,3.0214,3.0221,3.026,3.0324,3.0331,3.0337,3.0399,3.0414,3.0426,0,0,0,0,0,0,3.0221,3.0209,3.0189,3.0243,3.0248,3.024,3.0271,3.0246,3.026,3.0253,3.0224,3.0224,3.0273,3.0271,3.0236,3.0326,3.028,3.0287,3.0325,3.0339,3.035,3.0349,3.018,0,0,0,0,0,3.0242,3.0267,3.0255,3.0304,3.0308,3.029,3.0301,3.0283,3.0287,3.0289,3.0283,3.0289,3.031,3.0324,3.0343,3.0404,3.0403,3.0434,3.0445,3.0455,3.0462,3.0494,3.0508,3.036,3.036,3.036,0,0,3.0285,3.0281,3.0299,3.0317,3.0319,3.0346,3.0291,3.0322,3.0341,3.0293,3.0335,3.0331,3.0335,3.0389,3.0412,3.0388,3.0502,3.0463,3.047,3.0472,3.0502,3.0516,3.0529,3.0365,3.0364,3.0363,0,0,3.0376,3.0376,3.0417,3.042,3.0424,3.0411,3.0422,3.0417,3.0413,3.0454,3.0419,3.0442,3.0479,3.0484,3.0491,3.0586,3.0558,3.0593,3.0651,3.0683,3.0695,3.0705,3.0739,3.0751,3.06,3.06,3.06,0,3.0429,3.0467,3.0441,3.0474,3.0484,3.0442,3.0484,3.0488,3.0498,3.0505,3.0479,3.0525,3.0525,3.0579,3.0602,3.061,3.062,3.0593,3.0695,3.0705,3.0714,3.0746,3.0759,3.0605,3.0604,3.0604,3.0603,0,3.0532,3.0559,3.0592,3.0603,3.0616,3.0653,3.0633,3.065,3.0631,3.0622,3.0665,3.0663,3.0681,3.0693,3.0674,3.0745,3.073,3.07,3.0653,3.0733,3.0763,3.0775,3.0611,3.0609,3.0608,3.0607,0,0,3.0663,3.066,3.0672,3.0677,3.0678,3.0699,3.0735,3.0753,3.0767,3.0776,3.0805,3.0838,3.0811,3.0819,3.0801,3.083,3.0905,3.0796,3.0796,3.0816,3.0983,3.1005,3.102,3.0887,3.089,3.0891,3.0983,0,3.0751,3.0812,3.0791,3.0853,3.0878,3.084,3.0871,3.0876,3.0868,3.0889,3.0881,3.0905,3.0867,3.0872,3.0898,3.0891,3.0938,3.0884,3.0915,3.0916,3.0914,3.1035,3.1058,3.1145,3.0994,3.0996,3.0997,0,3.0863,3.0876,3.0941,3.0939,3.0949,3.0977,3.0992,3.1012,3.1018,3.101,3.102,3.0997,3.1032,3.0986,3.1035,3.0998,3.101,3.1008,3.1011,3.1012,3.0961,3.104,3.1172,3.1184,3.1015,3.1014,3.1013,0,3.0951,3.0986,3.1029,3.1034,3.1033,3.1054,3.1055,3.1057,3.107,3.1083,3.1091,3.1109,3.1118,3.1132,3.1114,3.1082,3.1166,3.1118,3.1161,3.1162,3.118,3.1179,3.1315,3.1188,3.1188,3.1188,3.1188,0,3.1052,3.1093,3.1069,3.1095,3.1141,3.1116,3.1162,3.1158,3.1161,3.1187,3.1155,3.118,3.1155,3.1177,3.1164,3.1206,3.1211,3.1206,3.1202,3.1209,3.1209,3.1215,3.1209,3.1191,3.1191,3.119,3.1189,0,3.1158,3.1144,3.1188,3.1184,3.1184,3.1218,3.1214,3.1239,3.123,3.1263,3.1269,3.1255,3.1281,3.1264,3.129,3.128,3.1336,3.1324,3.1335,3.1331,3.1375,3.1371,3.1519,3.1537,3.14,3.1401,3.1402,0,3.1223,3.1254,3.1254,3.1269,3.1271,3.1296,3.1308,3.1287,3.1301,3.131,3.1334,3.1356,3.1373,3.1415,3.1408,3.1427,3.1415,3.1466,3.1417,3.1424,3.1415,3.1413,3.1416,3.1475,3.1477,3.1478,3.1479,0,3.134,3.1331,3.1351,3.1369,3.1385,3.1397,3.1407,3.1421,3.14,3.1418,3.1443,3.1456,3.1483,3.1505,3.1522,3.1523,3.1498,3.1494,3.1505,3.1512,3.1517,3.1515,3.1361,3.1491,3.149,3.1489,3.1488,3.1488,3.1427,3.1453,3.1457,3.148,3.1485,3.1496,3.1519,3.1514,3.1535,3.1554,3.154,3.1571,3.1576,3.1596,3.1601,3.1624,3.1604,3.1619,3.1623,3.1627,3.1633,3.1514,3.1627,3.1627,3.1627,3.1626,3.1626,0,3.1541,3.1543,3.1564,3.158,3.1598,3.1574,3.1584,3.1601,3.1628,3.1635,3.1653,3.1683,3.1705,3.17,3.172,3.1741,3.173,3.1747,3.1745,3.1745,3.1651,3.1639,3.1755,3.1755,3.1755,3.1755,3.1755,3.1755,3.1603,3.1645,3.1638,3.1684,3.1684,3.1714,3.1722,3.1732,3.1738,3.1773,3.1791,3.1788,3.1791,3.1811,3.1831,3.1829,3.1838,3.1859,3.1853,3.1765,3.1752,3.174,3.1729,3.1862,3.1862,3.1945,3.1946,3.1947]},{"header":{"parameterUnit":"m.s-1","parameterCategory":1,"la1":30.2991,"la2":30.254,"lo1":-89.0895,"lo2":-89.0444,"dy":0.0017,"dx":0.0017,"nx":28,"ny":28,"refTime":"2026-01-01T09:00:00:Z","depth":0,"parameterNumber":3,"parameterNumberName":"V-component_of_WINDS"},"data":[0,0,0,0,0,0,0,0,0,0,0,0,0,0,0,0,0,0,0,0,0,0,0,0,0,0,0,0,0,0,0,0,0,0,0,0,0,0,0,0,0,0,0,0,0,0,0,0,0,0,0,0,0,0,0,0,0,0,6.3503,6.3505,0,6.3753,6.3756,6.3759,6.3801,6.3798,6.3796,6.3794,6.405,6.4059,6.4067,0,0,0,0,0,0,0,0,0,0,0,0,0,6.306,6.3068,6.3502,6.3506,6.3509,6.3753,6.3756,6.376,6.3801,6.3798,6.3796,6.3793,6.4047,6.4058,6.4068,0,0,0,0,0,0,0,0,0,0,0,0,0,6.3276,6.3071,6.3502,6.3559,6.3566,6.3752,6.3756,6.3761,6.3802,6.3798,6.3795,6.3792,6.4044,6.4057,6.407,6.4216,0,0,6.411,6.4116,0,0,0,0,0,0,0,0,6.3263,6.3292,6.3547,6.3555,6.3564,6.3742,6.3694,6.3913,6.3802,6.3712,6.3794,6.379,6.395,6.3971,6.4025,6.4228,6.4239,6.4111,6.4119,6.4125,6.4129,0,0,0,0,0,0,0,6.3249,6.3281,6.3602,6.3551,6.3561,6.3572,6.3599,6.3736,6.3846,6.372,6.3723,6.3753,6.3954,6.4012,6.4031,6.4243,6.4111,6.4123,6.4131,6.4136,6.4582,6.4586,0,0,0,0,0,0,6.3223,6.3269,6.3594,6.3609,6.3403,6.3583,6.3613,6.3688,6.3845,6.3866,6.3755,6.3754,6.3991,6.4016,6.4041,6.4225,6.4125,6.4137,6.4145,6.4578,6.4583,6.4587,0,0,0,0,0,0,6.3214,6.3252,6.3584,6.344,6.3483,6.3594,6.3678,6.3695,6.3753,6.3872,6.3891,6.3794,6.399,6.4022,6.4173,6.4234,6.4143,6.4155,6.4574,6.458,6.4585,6.4593,0,0,0,0,0,0,6.3201,6.3248,6.3304,6.3441,6.3491,6.3711,6.3682,6.3702,6.3776,6.3776,6.3913,6.3933,6.399,6.4153,6.4186,6.4251,6.4166,6.4569,6.4576,6.4583,6.4588,6.4599,6.4608,0,0,0,0,0,6.3185,6.3296,6.3307,6.3346,6.3563,6.3715,6.3743,6.3806,6.3781,6.3839,6.3915,6.3929,6.4222,6.4168,6.4206,6.4275,6.4565,6.4574,6.4583,6.4583,6.4596,6.4607,0,0,0,0,0,0,6.3162,6.3314,6.3329,6.3487,6.3588,6.3722,6.3797,6.3817,6.3927,6.3923,6.3996,6.4027,6.4175,6.424,6.4177,6.4427,6.4392,6.4408,6.4379,6.4393,6.4402,6.4384,6.4177,0,0,0,0,0,6.3176,6.3286,6.3413,6.3541,6.3591,6.3685,6.3753,6.3793,6.39,6.3943,6.4031,6.4134,6.425,6.4325,6.4437,6.4597,6.4629,6.4664,6.4674,6.4681,6.4695,6.4788,6.4806,6.4616,6.4616,6.4616,0,0,6.3205,6.3302,6.3366,6.3539,6.3621,6.3735,6.372,6.384,6.3926,6.3961,6.411,6.4178,6.4299,6.4455,6.4529,6.4514,6.4755,6.4692,6.4697,6.4708,6.4799,6.4816,6.4832,6.4622,6.4621,6.462,0,0,6.3316,6.3399,6.3516,6.36,6.3726,6.3789,6.3817,6.3949,6.3996,6.4146,6.4176,6.4279,6.4476,6.4562,6.4631,6.4778,6.4795,6.4812,6.4864,6.4954,6.4969,6.4982,6.5037,6.5056,6.4826,6.4826,6.4826,0,6.3336,6.3508,6.3573,6.3694,6.377,6.3808,6.3928,6.4006,6.4162,6.4214,6.4196,6.4446,6.453,6.4709,6.4745,6.4799,6.4835,6.4797,6.4961,6.4975,6.4989,6.5042,6.5063,6.4827,6.4827,6.4827,6.4827,0,6.3528,6.3647,6.3726,6.3878,6.3963,6.4082,6.4166,6.4244,6.4277,6.4342,6.4497,6.4598,6.4734,6.4779,6.4812,6.4964,6.4952,6.4946,6.4912,6.5008,6.5059,6.508,6.4829,6.4829,6.4828,6.4828,0,0,6.3631,6.3819,6.3848,6.3919,6.4062,6.4155,6.4277,6.4411,6.4477,6.4584,6.4689,6.4857,6.4854,6.4932,6.4975,6.5053,6.5167,6.5039,6.5043,6.5061,6.5344,6.5349,6.5371,6.5179,6.5183,6.5186,6.5335,0,6.3761,6.398,6.4044,6.4228,6.4341,6.4381,6.4487,6.4587,6.4651,6.4756,6.4827,6.4945,6.4931,6.4979,6.5058,6.5136,6.5225,6.5126,6.5279,6.5284,6.5249,6.5398,6.5402,6.5538,6.5355,6.5358,6.5361,0,6.3941,6.4054,6.425,6.4382,6.4432,6.4526,6.4656,6.4755,6.487,6.4911,6.5001,6.5038,6.5168,6.5126,6.5307,6.5239,6.5305,6.5353,6.536,6.5378,6.5329,6.5422,6.5582,6.5603,6.5393,6.539,6.5388,0,6.4,6.42,6.4345,6.4404,6.456,6.4626,6.4695,6.4806,6.4884,6.4997,6.5048,6.5174,6.5244,6.5341,6.5411,6.5374,6.5588,6.5551,6.5627,6.5626,6.5671,6.5668,6.5847,6.5711,6.571,6.571,6.5709,0,6.414,6.4259,6.4374,6.4462,6.4598,6.4671,6.4803,6.4873,6.4972,6.5076,6.5117,6.5214,6.5301,6.541,6.5465,6.5609,6.5639,6.5677,6.5691,6.5675,6.567,6.572,6.5714,6.5715,6.5714,6.5713,6.5712,0,6.4228,6.431,6.447,6.4607,6.4644,6.4738,6.4855,6.4943,6.5009,6.5141,6.5176,6.528,6.541,6.549,6.5655,6.5693,6.5851,6.586,6.5813,6.582,6.5892,6.5885,6.6111,6.6146,6.5984,6.5986,6.5987,0,6.4313,6.4406,6.4553,6.4626,6.4696,6.4812,6.4893,6.4968,6.505,6.5189,6.5261,6.5395,6.5505,6.5712,6.5803,6.593,6.5944,6.6014,6.5963,6.5945,6.5948,6.5942,6.5953,6.6023,6.6024,6.6026,6.6026,0,6.4455,6.4492,6.4605,6.4735,6.4829,6.4934,6.5039,6.5096,6.519,6.528,6.5414,6.55,6.567,6.5803,6.5938,6.6009,6.6035,6.6042,6.6067,6.6052,6.6022,6.6042,6.5839,6.6037,6.6036,6.6035,6.6034,6.6034,6.4546,6.4632,6.475,6.4876,6.4963,6.5061,6.5152,6.5231,6.5344,6.5489,6.5527,6.5668,6.5784,6.5968,6.6043,6.6155,6.6145,6.618,6.6189,6.6197,6.62,6.6002,6.618,6.6179,6.6179,6.6179,6.6179,0,6.4693,6.4771,6.4887,6.5033,6.5133,6.5149,6.5266,6.5349,6.5473,6.5579,6.5688,6.5844,6.5973,6.6075,6.6208,6.6279,6.6295,6.6312,6.6308,6.6325,6.6201,6.6167,6.6298,6.6298,6.6298,6.6298,6.6298,6.6298,6.4781,6.4928,6.4979,6.517,6.5248,6.5388,6.5454,6.5545,6.563,6.5803,6.5912,6.5977,6.6082,6.6224,6.6344,6.6371,6.6419,6.6435,6.6464,6.6346,6.6333,6.6321,6.629,6.6444,6.6444,6.658,6.6581,6.6582]}]]